Other Surface Observations
Issued by NWS Charleston, SC

Current Version | Previous Version | Text Only | Print | Product List | Glossary On
Versions: 1 2 3 4 5 6 7 8 9 10 11 12 13 14 15 16 17 18 19 20 21 22 23 24 25 26 27 28 29 30 31 32 33 34 35 36 37 38 39 40 41 42 43 44 45 46 47 48 49 50
844
SXUS52 KCHS 060827
OSOCHS

MARINE OBSERVATIONS
NATIONAL WEATHER SERVICE CHARLESTON SC
300 AM EST SAT FEB 06 2016

...DOWNTOWN CHARLESTON AND HARBOR...

CITY           SKY/WX    TMP DP  RH WIND       PRES   REMARKS
WATERFRONT PRK   N/A     43  36  76 NE7       30.21F

...LAKE MOULTRIE...

CITY           SKY/WX    TMP DP  RH WIND       PRES   REMARKS
PINOPOLIS        N/A     43  32  65 E8        30.29F

...LAKE AND SUPPLEMENTAL COASTAL OBSERVATIONS...

STATION/POSITION TIME  TEMP    WIND        PRES    WAVE   SWELL
                       AIR SEA DIR/SP/G            HT/PER HT/PER/DIR
                 (UTC) (F)     (DEG/KT/KT) (MB)    (FT/S) (FT/S/D)
FORT PULASKI     0800   44 55  360/ 10/ 12 1027.4F
SAPELO ISLAND    0800   42      20/  8     1026.0F
WINYAH BAY       0700   39      10/  5     1027.0F
LAKE MURRAY      0800   33      CALM  /  1 1028.4R
ACE BASIN NERRS  0700   34        CALM     1028.0S


...C-MAN AND BUOY OBSERVATIONS...

STATION/POSITION TIME  TEMP    WIND        PRES    WAVE   SWELL
                       AIR SEA DIR/SP/G            HT/PER HT/PER/DIR
                 (UTC) (F)     (DEG/KT/KT) (MB)    (FT/S) (FT/S/D)
BUOY 41004       0750   52 67   30/ 14/ 19 1026.4F   4/ 9   2/ 9
BUOY 41008       0750   52 56   40/ 16/ 17 1026.0F   4/ 5   2/ 70/ 8
FOLLY BEACH CMAN 0800   46      10/ 14/ 17 1027.8F
CAPERS NS BUOY   0708   48      50/ 14/ 19 1027.8F
FRIPP NS BUOY    0700   49      50/ 12/ 14 1027.0F
5E ST. MARYS GA  0751      58                N/A     5/ 5


STATION/POSITION TIME  TEMP    WIND        PRES    WAVE   SWELL
                       AIR SEA DIR/SP/G            HT/PER HT/PER/DIR
                 (UTC) (F)     (DEG/KT/KT) (MB)    (FT/S) (FT/S/D)
FRYING PAN BUOY  0800   50 69   20/ 14/ 19 1027.3F
BUOY 41025       0750   45 73   10/ 14/ 19 1028.6F   7/10   7/ 50/10
CAPE LOOKOUT NC  NOT AVBL
BUOY 41002       0750   58 69   60/ 16/ 21   N/A    10/10   8/ 20/10
BUOY 41010       0720   66 73              1021.8F
ST AUGUSTINE FL  0800   55 59   20/ 26/ 30 1023.5F

$$




USA.gov is the U.S. government's official web portal to all federal, state and local government web resources and services.